This demonstration page uses our WeatherBlox Daily Observations layout. Learn more.

38.89511, -77.03637

Hourly Observations for February 5, 2015

Temp ( °F °C ) Dew Point ( °F °C ) Humidity (%) Winds ( mph kmh ) Pressure ( in mb ) Visibility ( mi km ) Precip ( " mm )
12:52 am 00:52 Mostly Cloudy 42 5.6 26 -3.3 53 53 S 3 6 29.91 1013 10 16.0934 0 0
1:52 am 01:52 Mostly Cloudy 41 5 27 -2.8 57 57 S 9 15 29.9 1012 10 16.0934 0 0
2:52 am 02:52 Mostly Cloudy 40 4.4 26 -3.3 58 58 NNW 3 6 29.89 1012 10 16.0934 0 0
3:52 am 03:52 Mostly Cloudy 39 3.9 27 -2.8 62 62 SSW 3 6 29.87 1012 10 16.0934 0 0
4:52 am 04:52 Cloudy 37 2.8 25 -3.9 62 62 W 3 6 29.88 1012 10 16.0934 0 0
5:52 am 05:52 Mostly Cloudy 44 6.7 26 -3.3 49 49 NW 16 26 29.91 1013 10 16.0934 0 0
6:16 am 06:16 Partly Cloudy 45 7 28 -2 53 53 NW 17 28 29.94 1014 10 16.0934 0 0
6:30 am 06:30 Partly Cloudy 41 5 27 -3 57 57 NNW 21 33 29.97 1015 10 16.0934 0 0
6:52 am 06:52 Mostly Cloudy 39 3.9 23 -5 53 53 NNW 20 31 29.99 1016 10 16.0934 0 0
7:52 am 07:52 Cloudy 38 3.3 18 -7.8 44 44 NNW 21 33 30.04 1017 10 16.0934 0 0
8:52 am 08:52 Cloudy 35 1.7 15 -9.4 44 44 NNW 20 31 30.1 1019 10 16.0934 0 0
9:52 am 09:52 Cloudy 34 1.1 12 -11.1 40 40 NW 23 37 30.13 1020 10 16.0934 0 0
10:52 am 10:52 Cloudy 33 0.6 7 -13.9 33 33 NW 21 33 30.16 1021 10 16.0934 0 0
11:52 am 11:52 Mostly Cloudy 34 1.1 7 -13.9 32 32 NNW 23 37 30.14 1021 10 16.0934 0 0
12:52 pm 12:52 Mostly Cloudy 34 1.1 5 -15 29 29 NNW 28 44 30.14 1021 10 16.0934 0 0
1:52 pm 13:52 Mostly Cloudy 33 0.6 4 -15.6 29 29 NNW 23 37 30.16 1021 10 16.0934 0 0
2:52 pm 14:52 Partly Cloudy 34 1.1 4 -15.6 28 28 NNW 22 35 30.16 1021 10 16.0934 0 0
3:52 pm 15:52 Partly Cloudy 32 0 2 -16.7 27 27 NW 22 35 30.18 1022 10 16.0934 0 0
4:52 pm 16:52 Mostly Sunny 30 -1.1 -2 -18.9 25 25 NW 25 41 30.22 1023 10 16.0934 0 0
5:52 pm 17:52 Clear 28 -2.2 -3 -19.4 26 26 NNW 23 37 30.24 1024 10 16.0934 0 0
6:52 pm 18:52 Clear 27 -2.8 -3 -19.4 27 27 NNW 18 30 30.28 1026 10 16.0934 0 0
7:52 pm 19:52 Clear 26 -3.3 -2 -18.9 29 29 NW 14 22 30.3 1026 10 16.0934 0 0
8:52 pm 20:52 Clear 25 -3.9 -2 -18.9 30 30 NW 16 26 30.32 1027 10 16.0934 0 0
9:52 pm 21:52 Clear 23 -5 -1 -18.3 35 35 NNW 17 28 30.33 1027 10 16.0934 0 0
10:52 pm 22:52 Clear 22 -5.6 -1 -18.3 36 36 NW 10 17 30.35 1028 10 16.0934 0 0
11:52 pm 23:52 Clear 21 -6.1 -1 -18.3 38 38 NW 17 28 30.36 1028 10 16.0934 0 0

Powered by AerisWeather